TimeCST,TemperatureF,Dew PointF,Humidity,Sea Level PressureIn,VisibilityMPH,Wind Direction,Wind SpeedMPH,Gust SpeedMPH,PrecipitationIn,Events,Conditions,WindDirDegrees,DateUTC
12:15 AM,19.4,14.0,80,30.17,10.0,West,10.4,-,N/A,,Clear,270,2012-12-29 06:15:00
12:35 AM,19.4,14.0,80,30.17,10.0,West,10.4,-,N/A,,Clear,280,2012-12-29 06:35:00
12:55 AM,17.6,14.0,86,30.18,10.0,WNW,10.4,-,N/A,,Clear,290,2012-12-29 06:55:00
1:15 AM,19.4,14.0,80,30.17,10.0,WNW,10.4,-,N/A,,Clear,300,2012-12-29 07:15:00
1:35 AM,17.6,12.2,79,30.17,10.0,WNW,9.2,-,N/A,,Clear,290,2012-12-29 07:35:00
1:55 AM,17.6,14.0,86,30.18,10.0,West,10.4,-,N/A,,Clear,280,2012-12-29 07:55:00
2:15 AM,19.4,14.0,80,30.19,10.0,West,9.2,-,N/A,,Clear,280,2012-12-29 08:15:00
2:35 AM,17.6,12.2,79,30.19,10.0,WNW,8.1,-,N/A,,Clear,300,2012-12-29 08:35:00
2:55 AM,17.6,12.2,79,30.19,10.0,WNW,8.1,-,N/A,,Clear,300,2012-12-29 08:55:00
3:15 AM,17.6,12.2,79,30.21,10.0,WNW,8.1,-,N/A,,Clear,290,2012-12-29 09:15:00
3:35 AM,17.6,12.2,79,30.21,10.0,West,6.9,-,N/A,,Clear,280,2012-12-29 09:35:00
3:55 AM,17.6,12.2,79,30.22,10.0,West,9.2,-,N/A,,Clear,260,2012-12-29 09:55:00
4:15 AM,17.6,12.2,79,30.23,10.0,West,10.4,-,N/A,,Clear,280,2012-12-29 10:15:00
4:35 AM,17.6,12.2,79,30.23,10.0,West,9.2,-,N/A,,Clear,280,2012-12-29 10:35:00
4:55 AM,17.6,12.2,79,30.23,10.0,West,10.4,-,N/A,,Clear,260,2012-12-29 10:55:00
5:15 AM,17.6,12.2,79,30.24,10.0,West,12.7,-,N/A,,Clear,270,2012-12-29 11:15:00
5:35 AM,17.6,12.2,79,30.25,10.0,West,10.4,-,N/A,,Clear,270,2012-12-29 11:35:00
6:15 AM,15.8,10.4,79,30.25,10.0,WNW,8.1,-,N/A,,Clear,290,2012-12-29 12:15:00
6:35 AM,14.0,10.4,86,30.26,10.0,West,5.8,-,N/A,,Clear,280,2012-12-29 12:35:00
6:55 AM,14.0,10.4,86,30.27,10.0,West,9.2,-,N/A,,Clear,270,2012-12-29 12:55:00
7:15 AM,14.0,10.4,86,30.27,10.0,West,8.1,-,N/A,,Clear,260,2012-12-29 13:15:00
7:35 AM,15.8,10.4,79,30.28,10.0,WSW,6.9,-,N/A,,Clear,250,2012-12-29 13:35:00
7:55 AM,15.8,10.4,79,30.28,10.0,WSW,6.9,-,N/A,,Clear,250,2012-12-29 13:55:00
8:15 AM,15.8,10.4,79,30.29,10.0,WSW,6.9,-,N/A,,Clear,250,2012-12-29 14:15:00
8:35 AM,19.4,14.0,80,30.29,10.0,West,8.1,-,N/A,,Clear,260,2012-12-29 14:35:00
8:55 AM,24.8,15.8,69,30.29,10.0,West,5.8,-,N/A,,Clear,260,2012-12-29 14:55:00
9:15 AM,28.4,17.6,64,30.30,10.0,WSW,6.9,-,N/A,,Clear,240,2012-12-29 15:15:00
9:35 AM,28.4,17.6,64,30.31,10.0,WSW,6.9,-,N/A,,Clear,250,2012-12-29 15:35:00
9:55 AM,30.2,19.4,64,30.31,10.0,West,8.1,-,N/A,,Clear,260,2012-12-29 15:55:00
10:15 AM,32.0,19.4,60,30.31,10.0,West,5.8,-,N/A,,Clear,260,2012-12-29 16:15:00
10:35 AM,35.6,19.4,52,30.33,10.0,West,8.1,-,N/A,,Clear,260,2012-12-29 16:35:00
10:55 AM,37.4,19.4,48,30.34,10.0,WSW,8.1,-,N/A,,Clear,240,2012-12-29 16:55:00
11:15 AM,41.0,17.6,39,30.34,10.0,WSW,10.4,-,N/A,,Clear,240,2012-12-29 17:15:00
11:35 AM,41.0,17.6,39,30.34,10.0,WSW,11.5,-,N/A,,Clear,250,2012-12-29 17:35:00
11:55 AM,41.0,15.8,36,30.33,10.0,SW,11.5,-,N/A,,Clear,230,2012-12-29 17:55:00
12:15 PM,42.8,15.8,34,30.33,10.0,West,9.2,-,N/A,,Clear,260,2012-12-29 18:15:00
12:35 PM,42.8,14.0,31,30.31,10.0,WSW,8.1,-,N/A,,Clear,250,2012-12-29 18:35:00
12:55 PM,42.8,15.8,34,30.30,10.0,West,8.1,-,N/A,,Clear,260,2012-12-29 18:55:00
1:15 PM,42.8,15.8,34,30.28,10.0,SW,9.2,-,N/A,,Clear,230,2012-12-29 19:15:00
1:35 PM,44.6,14.0,29,30.28,10.0,WSW,8.1,-,N/A,,Clear,240,2012-12-29 19:35:00
1:55 PM,44.6,14.0,29,30.27,10.0,West,10.4,-,N/A,,Clear,260,2012-12-29 19:55:00
2:15 PM,44.6,14.0,29,30.26,10.0,WSW,10.4,18.4,N/A,,Clear,240,2012-12-29 20:15:00
2:35 PM,44.6,14.0,29,30.26,10.0,WSW,9.2,-,N/A,,Clear,240,2012-12-29 20:35:00
2:55 PM,44.6,14.0,29,30.26,10.0,SW,13.8,-,N/A,,Clear,230,2012-12-29 20:55:00
3:15 PM,44.6,14.0,29,30.26,10.0,SSW,11.5,16.1,N/A,,Clear,210,2012-12-29 21:15:00
3:35 PM,44.6,14.0,29,30.25,10.0,SSW,10.4,-,N/A,,Clear,210,2012-12-29 21:35:00
3:55 PM,44.6,17.6,34,30.25,10.0,SSW,12.7,-,N/A,,Clear,200,2012-12-29 21:55:00
4:15 PM,44.6,15.8,31,30.25,10.0,South,10.4,-,N/A,,Clear,190,2012-12-29 22:15:00
4:35 PM,42.8,14.0,31,30.25,10.0,SSW,9.2,-,N/A,,Clear,200,2012-12-29 22:35:00
4:55 PM,42.8,14.0,31,30.24,10.0,SSW,9.2,-,N/A,,Clear,200,2012-12-29 22:55:00
5:15 PM,41.0,14.0,33,30.24,10.0,South,8.1,-,N/A,,Clear,190,2012-12-29 23:15:00
5:35 PM,35.6,17.6,48,30.24,10.0,South,8.1,-,N/A,,Clear,180,2012-12-29 23:35:00
5:55 PM,32.0,17.6,55,30.23,10.0,South,8.1,-,N/A,,Clear,170,2012-12-29 23:55:00
6:15 PM,30.2,17.6,60,30.23,10.0,SSE,9.2,-,N/A,,Clear,160,2012-12-30 00:15:00
6:35 PM,28.4,17.6,64,30.24,10.0,SSE,8.1,-,N/A,,Clear,160,2012-12-30 00:35:00
6:55 PM,28.4,17.6,64,30.24,10.0,SSE,8.1,-,N/A,,Clear,160,2012-12-30 00:55:00
7:15 PM,26.6,17.6,69,30.23,10.0,SSE,9.2,-,N/A,,Clear,150,2012-12-30 01:15:00
7:35 PM,26.6,17.6,69,30.22,10.0,SSE,8.1,-,N/A,,Clear,150,2012-12-30 01:35:00
7:55 PM,24.8,17.6,74,30.23,10.0,SSE,10.4,-,N/A,,Clear,160,2012-12-30 01:55:00
8:35 PM,24.8,17.6,74,30.22,10.0,SSE,9.2,-,N/A,,Clear,160,2012-12-30 02:35:00
8:55 PM,26.6,17.6,69,30.23,10.0,South,9.2,-,N/A,,Clear,180,2012-12-30 02:55:00
9:15 PM,24.8,17.6,74,30.23,10.0,South,9.2,-,N/A,,Clear,180,2012-12-30 03:15:00
9:35 PM,24.8,17.6,74,30.23,10.0,SSW,6.9,-,N/A,,Clear,200,2012-12-30 03:35:00
9:55 PM,26.6,17.6,69,30.24,10.0,SSW,9.2,-,N/A,,Clear,200,2012-12-30 03:55:00
10:15 PM,28.4,17.6,64,30.23,10.0,South,10.4,-,N/A,,Clear,190,2012-12-30 04:15:00
10:35 PM,26.6,17.6,69,30.22,10.0,South,10.4,-,N/A,,Clear,180,2012-12-30 04:35:00
10:55 PM,26.6,17.6,69,30.21,10.0,South,11.5,-,N/A,,Clear,190,2012-12-30 04:55:00
11:15 PM,26.6,17.6,69,30.21,10.0,South,11.5,-,N/A,,Clear,190,2012-12-30 05:15:00
11:35 PM,28.4,17.6,64,30.21,10.0,South,15.0,-,N/A,,Clear,180,2012-12-30 05:35:00
11:55 PM,28.4,17.6,64,30.21,10.0,South,10.4,-,N/A,,Clear,180,2012-12-30 05:55:00